DW7590 Weather Reports


time (UTC)temp
C
wind
direction
speed
KPH
gust
KPH
rain 1hr
cm
rain 24hr
cm
rain mn
cm
humidity
%
barometer
mb
20260510022249 23 89 11.3 16.1 0.00 0.00 0.00 47 1009.2
20260510021750 23 115 9.7 16.1 0.00 0.00 0.00 47 1009.0
20260510021249 23 111 12.9 16.1 0.00 0.00 0.00 47 1008.8
20260510020749 23 118 8.0 16.1 0.00 0.00 0.00 47 1008.5
20260510020249 23 128 4.8 14.5 0.00 0.00 0.00 46 1008.5
20260510015750 23 112 3.2 14.5 0.00 0.00 0.00 46 1008.2
20260510015249 24 126 1.6 16.1 0.00 0.00 0.00 45 1007.8
20260510014750 24 117 8.0 19.3 0.00 0.00 0.00 45 1007.5
20260510014250 24 141 8.0 19.3 0.00 0.00 0.00 45 1007.3
20260510013749 24 155 8.0 16.1 0.00 0.00 0.00 45 1007.2
20260510013249 24 135 4.8 16.1 0.00 0.00 0.00 44 1007.1
20260510012749 25 133 8.0 16.1 0.00 0.00 0.00 44 1007.3
20260510012249 25 128 12.9 12.9 0.00 0.00 0.00 43 1007.4
20260510011749 25 134 9.7 12.9 0.00 0.00 0.00 43 1007.5
20260510011249 25 137 9.7 12.9 0.00 0.00 0.00 42 1007.4
20260510010749 25 115 8.0 14.5 0.00 0.00 0.00 42 1007.2
20260510010249 25 155 8.0 14.5 0.00 0.00 0.00 42 1007.3
20260510005749 25 149 8.0 14.5 0.00 0.00 0.00 41 1007.3
20260510005249 26 127 8.0 14.5 0.00 0.00 0.00 40 1007.4
20260510004748 26 134 8.0 12.9 0.00 0.00 0.00 40 1007.4
20260510003749 26 133 3.2 16.1 0.00 0.00 0.00 39 1007.3
20260510003249 26 147 8.0 14.5 0.00 0.00 0.00 38 1007.3
20260510002750 26 133 1.6 14.5 0.00 0.00 0.00 38 1007.4
20260510002249 27 136 8.0 14.5 0.00 0.00 0.00 37 1007.5
20260510001249 27 132 4.8 19.3 0.00 0.00 0.00 36 1007.6
20260510000249 27 155 3.2 14.5 0.00 0.00 0.00 35 1007.5
20260509235750 27 133 4.8 16.1 0.00 0.00 0.00 34 1007.6
20260509235249 28 116 3.2 19.3 0.00 0.00 0.00 34 1007.6
20260509234249 28 146 19.3 19.3 0.00 0.00 0.00 33 1007.5
20260509233749 28 160 11.3 22.5 0.00 0.00 0.00 33 1007.6
20260509233249 28 144 8.0 22.5 0.00 0.00 0.00 34 1007.6
20260509232749 28 142 19.3 20.9 0.00 0.00 0.00 33 1007.6
20260509232249 28 157 11.3 20.9 0.00 0.00 0.00 32 1007.6
20260509231749 28 143 8.0 20.9 0.00 0.00 0.00 31 1007.5
20260509231248 28 157 4.8 19.3 0.00 0.00 0.00 30 1007.6
20260509230749 28 138 8.0 20.9 0.00 0.00 0.00 30 1007.7
20260509230249 28 157 9.7 20.9 0.00 0.00 0.00 30 1007.7
20260509225249 28 188 20.9 20.9 0.00 0.05 0.00 30 1007.8
20260509224750 28 145 9.7 20.9 0.00 0.05 0.00 30 1007.9
20260509224249 28 153 4.8 19.3 0.00 0.08 0.00 30 1008.0
20260509223749 28 145 4.8 25.7 0.00 0.08 0.00 32 1008.0
20260509223249 28 166 3.2 25.7 0.00 0.08 0.00 30 1008.1
20260509222749 28 99 1.6 25.7 0.00 0.08 0.00 31 1008.1
20260509222249 29 128 14.5 22.5 0.00 0.08 0.00 32 1008.2
20260509221750 30 159 11.3 14.5 0.00 0.08 0.00 32 1008.2
20260509221249 29 216 11.3 14.5 0.00 0.08 0.00 34 1008.3
20260509220749 29 188 8.0 14.5 0.00 0.08 0.00 33 1008.4
20260509220249 29 227 8.0 16.1 0.00 0.08 0.00 33 1008.4
20260509215749 28 211 11.3 27.4 0.00 0.08 0.00 33 1008.4
20260509214249 29 182 3.2 22.5 0.00 0.08 0.00 32 1008.3
20260509213750 29 273 8.0 22.5 0.00 0.08 0.00 32 1008.3
20260509213250 30 116 19.3 19.3 0.00 0.08 0.00 32 1008.4
20260509212749 30 249 8.0 16.1 0.00 0.08 0.00 34 1008.5
20260509212249 29 184 9.7 19.3 0.00 0.08 0.00 33 1008.6
20260509211748 29 159 11.3 19.3 0.00 0.08 0.00 32 1008.7
20260509211249 29 242 3.2 19.3 0.00 0.08 0.00 34 1008.8
20260509210748 28 193 1.6 19.3 0.00 0.08 0.00 33 1008.8
20260509210249 29 135 9.7 16.1 0.00 0.08 0.00 32 1008.9
20260509205749 28 132 9.7 14.5 0.00 0.08 0.00 31 1008.8
20260509205249 28 151 1.6 16.1 0.00 0.08 0.00 32 1008.9
20260509204749 28 134 11.3 19.3 0.00 0.08 0.00 33 1009.0
20260509204248 28 92 1.6 19.3 0.00 0.08 0.00 31 1009.2
20260509203749 28 152 9.7 19.3 0.00 0.08 0.00 32 1009.2
20260509202749 28 56 4.8 19.3 0.00 0.08 0.00 31 1009.3
20260509202249 28 141 4.8 12.9 0.00 0.08 0.00 32 1009.3
20260509201750 28 139 1.6 12.9 0.00 0.08 0.00 30 1009.4
20260509201250 28 160 3.2 12.9 0.00 0.08 0.00 30 1009.4
20260509200750 28 141 3.2 8.0 0.00 0.08 0.00 31 1009.5
20260509200249 28 201 1.6 8.0 0.00 0.08 0.00 28 1009.5
20260509195749 28 136 8.0 11.3 0.00 0.08 0.00 29 1009.5
20260509195249 28 255 3.2 16.1 0.00 0.08 0.00 32 1009.6
20260509194749 28 120 3.2 16.1 0.00 0.08 0.00 32 1009.7
20260509194249 28 151 8.0 14.5 0.00 0.08 0.00 29 1009.8
20260509193749 28 195 1.6 14.5 0.00 0.08 0.00 29 1009.8
20260509193249 28 145 11.3 12.9 0.00 0.08 0.00 28 1009.8
20260509192749 28 161 3.2 11.3 0.00 0.08 0.00 31 1009.9
20260509192249 28 249 1.6 14.5 0.00 0.08 0.00 31 1009.9
20260509191749 28 174 4.8 14.5 0.00 0.08 0.00 32 1010.0
20260509191249 28 144 8.0 11.3 0.00 0.08 0.00 33 1010.1
20260509190749 28 193 4.8 12.9 0.00 0.08 0.00 37 1010.3
20260509190249 28 166 3.2 12.9 0.00 0.08 0.00 33 1010.2
20260509185749 28 225 3.2 11.3 0.00 0.08 0.00 34 1010.3
20260509185249 28 258 1.6 14.5 0.00 0.08 0.00 34 1010.3
20260509184249 28 191 4.8 16.1 0.00 0.08 0.00 31 1010.5
20260509183250 27 153 1.6 14.5 0.00 0.08 0.00 38 1010.7
20260509182249 27 243 12.9 12.9 0.00 0.08 0.00 39 1010.8
20260509181248 27 236 4.8 20.9 0.00 0.08 0.00 39 1010.9
20260509180249 27 220 1.6 14.5 0.00 0.08 0.00 44 1011.0
20260509175249 26 269 8.0 16.1 0.00 0.08 0.00 45 1011.2
20260509174749 26 151 4.8 16.1 0.00 0.08 0.00 48 1011.3
20260509174248 26 269 4.8 11.3 0.00 0.08 0.00 50 1011.3
20260509173748 26 240 1.6 12.9 0.00 0.08 0.00 50 1011.3
20260509173248 26 233 11.3 19.3 0.00 0.08 0.00 47 1011.4
20260509172750 26 135 8.0 19.3 0.00 0.08 0.00 46 1011.4
20260509172249 26 141 14.5 19.3 0.00 0.08 0.00 46 1011.4
20260509171749 26 151 14.5 19.3 0.00 0.08 0.00 48 1011.6
20260509171249 26 174 3.2 19.3 0.00 0.08 0.00 48 1011.6
20260509170749 25 150 17.7 20.9 0.00 0.08 0.00 48 1011.4
20260509170248 25 159 4.8 20.9 0.00 0.08 0.00 47 1011.4
20260509165749 25 141 9.7 19.3 0.00 0.08 0.00 53 1011.4
20260509165249 25 138 4.8 19.3 0.00 0.08 0.00 52 1011.5
20260509164249 25 182 3.2 14.5 0.00 0.08 0.00 51 1011.6
20260509163749 25 131 14.5 16.1 0.00 0.08 0.00 52 1011.7
20260509163250 25 101 3.2 16.1 0.00 0.08 0.00 52 1011.7
20260509162749 24 117 8.0 12.9 0.00 0.08 0.00 52 1011.8
20260509162248 24 101 3.2 12.9 0.00 0.08 0.00 54 1011.8
20260509161249 23 173 1.6 8.0 0.00 0.08 0.00 57 1011.9
20260509160250 23 174 1.6 11.3 0.00 0.08 0.00 60 1011.8
20260509155749 23 129 3.2 11.3 0.00 0.08 0.00 59 1011.6
20260509154748 23 154 8.0 6.4 0.00 0.08 0.00 62 1011.8
20260509154248 22 168 8.0 8.0 0.00 0.08 0.00 63 1011.7
20260509153248 22 97 9.7 14.5 0.00 0.08 0.00 63 1011.3
20260509152748 22 160 1.6 8.0 0.00 0.08 0.00 64 1011.5
20260509152248 22 139 4.8 11.3 0.00 0.08 0.00 63 1011.5
20260509151748 22 119 3.2 11.3 0.00 0.08 0.00 61 1011.6
20260509151250 22 162 3.2 6.4 0.00 0.08 0.00 64 1011.7
20260509150749 22 168 3.2 6.4 0.00 0.08 0.00 71 1011.5
20260509150248 21 145 1.6 6.4 0.00 0.08 0.00 73 1011.6
20260509145748 21 141 1.6 12.9 0.00 0.08 0.00 76 1011.4
20260509144749 21 141 4.8 11.3 0.00 0.08 0.00 77 1011.3
20260509143749 20 208 1.6 0.0 0.00 0.08 0.00 83 1011.5
20260509142748 19 209 1.6 0.0 0.00 0.08 0.00 82 1011.4
20260509142249 19 209 1.6 0.0 0.00 0.08 0.00 83 1011.4
20260509141750 18 209 1.6 0.0 0.00 0.08 0.00 84 1011.4
20260509141248 18 209 1.6 0.0 0.00 0.08 0.00 84 1011.3
20260509140748 18 209 1.6 0.0 0.00 0.08 0.00 85 1011.3
20260509140249 18 208 1.6 6.4 0.00 0.08 0.00 87 1011.2
20260509135749 17 208 1.6 6.4 0.00 0.08 0.00 88 1011.2
20260509135248 17 222 1.6 6.4 0.00 0.08 0.00 88 1011.2
20260509134750 17 225 1.6 1.6 0.00 0.08 0.00 88 1011.1
20260509134249 17 272 3.2 1.6 0.00 0.08 0.00 90 1011.0
20260509133750 17 285 1.6 4.8 0.00 0.08 0.00 90 1011.0
20260509133249 17 288 1.6 4.8 0.00 0.08 0.00 90 1011.0
20260509132748 16 344 1.6 0.0 0.00 0.08 0.00 91 1010.9
20260509132248 16 344 1.6 0.0 0.00 0.08 0.00 90 1010.9
20260509131748 16 351 1.6 0.0 0.00 0.08 0.00 91 1010.9
20260509131248 16 351 1.6 0.0 0.00 0.08 0.00 91 1010.7
20260509130248 16 15 1.6 6.4 0.00 0.08 0.00 92 1010.6
20260509125749 16 15 1.6 6.4 0.00 0.08 0.00 91 1010.4
20260509125249 16 3 1.6 4.8 0.00 0.08 0.00 92 1010.4
20260509124748 15 1 1.6 0.0 0.00 0.08 0.00 93 1010.6
20260509124250 15 1 1.6 0.0 0.00 0.08 0.00 92 1010.6
20260509123749 15 1 1.6 0.0 0.00 0.08 0.00 93 1010.4
20260509123250 14 1 1.6 0.0 0.00 0.08 0.00 93 1010.3
20260509122749 14 1 1.6 0.0 0.00 0.08 0.00 92 1010.3
20260509121748 14 1 1.6 0.0 0.00 0.08 0.00 92 1010.2
20260509121249 13 1 1.6 0.0 0.00 0.08 0.00 92 1010.0
20260509120249 13 1 1.6 1.6 0.00 0.08 0.00 92 1009.8
20260509115749 13 1 1.6 1.6 0.00 0.08 0.00 92 1009.7
20260509115249 13 3 1.6 4.8 0.00 0.08 0.00 92 1009.7
20260509114750 13 4 1.6 4.8 0.00 0.08 0.00 92 1009.9
20260509113749 13 324 1.6 0.0 0.00 0.08 0.00 92 1009.9
20260509113249 12 322 1.6 0.0 0.00 0.08 0.00 91 1009.7
20260509112749 12 319 1.6 0.0 0.00 0.08 0.00 91 1009.7
20260509111749 13 319 1.6 0.0 0.00 0.08 0.00 91 1009.7
20260509111248 13 319 1.6 1.6 0.00 0.08 0.00 91 1009.7
20260509110749 13 318 1.6 1.6 0.00 0.08 0.00 91 1009.6
20260509110248 13 304 1.6 4.8 0.00 0.08 0.00 91 1009.7
20260509105748 13 330 1.6 4.8 0.00 0.08 0.00 91 1009.7
20260509105249 13 326 1.6 4.8 0.00 0.08 0.00 91 1009.7
20260509104748 13 326 1.6 4.8 0.00 0.08 0.00 92 1009.9
20260509104249 12 10 1.6 4.8 0.00 0.08 0.00 91 1009.8
20260509103749 12 121 1.6 0.0 0.00 0.08 0.00 90 1009.9
20260509103248 12 122 1.6 0.0 0.00 0.08 0.00 90 1009.8
20260509101748 12 122 1.6 0.0 0.00 0.08 0.00 90 1009.9
20260509100749 13 122 1.6 0.0 0.00 0.08 0.00 89 1010.0
20260509100249 13 122 1.6 1.6 0.00 0.08 0.00 89 1010.2
20260509095749 13 122 1.6 1.6 0.00 0.08 0.00 89 1010.1
20260509095249 13 20 1.6 0.0 0.00 0.08 0.00 90 1010.2
20260509094249 14 20 1.6 0.0 0.00 0.08 0.00 90 1010.5
20260509093749 14 20 1.6 1.6 0.00 0.08 0.00 90 1010.5
20260509093249 15 39 1.6 1.6 0.00 0.08 0.00 91 1010.5
20260509092749 15 76 1.6 1.6 0.00 0.08 0.00 91 1010.5
20260509092249 14 76 1.6 1.6 0.00 0.08 0.00 91 1010.5
20260509091750 14 93 1.6 1.6 0.00 0.08 0.00 91 1010.5
20260509091248 14 94 1.6 0.0 0.00 0.08 0.00 91 1010.6
20260509090748 14 94 1.6 0.0 0.00 0.08 0.00 91 1010.6
20260509090249 13 94 1.6 0.0 0.00 0.08 0.00 90 1010.6
20260509085748 14 94 1.6 1.6 0.00 0.08 0.00 90 1010.6
20260509084748 14 95 1.6 0.0 0.00 0.08 0.00 91 1010.5
20260509084249 14 98 1.6 1.6 0.00 0.08 0.00 91 1010.5
20260509083749 14 98 1.6 1.6 0.00 0.08 0.00 90 1010.5
20260509083248 14 116 1.6 0.0 0.00 0.08 0.00 90 1010.6
20260509082749 14 116 1.6 0.0 0.00 0.08 0.00 90 1010.6
20260509081748 14 116 1.6 0.0 0.00 0.08 0.00 90 1010.7
20260509081249 14 116 1.6 0.0 0.00 0.08 0.00 90 1010.6
20260509080749 13 116 1.6 0.0 0.00 0.08 0.00 90 1010.8
20260509075250 13 116 1.6 0.0 0.00 0.08 0.00 89 1011.1
20260509074248 14 116 1.6 0.0 0.00 0.08 0.00 89 1011.2
20260509072748 14 116 1.6 0.0 0.00 0.08 0.00 88 1011.1
20260509072249 14 116 1.6 0.0 0.00 0.08 0.00 88 1011.2
20260509071749 14 116 1.6 0.0 0.00 0.08 0.00 88 1011.2
20260509071249 15 116 1.6 0.0 0.00 0.08 0.00 88 1011.2
20260509070748 15 116 1.6 0.0 0.00 0.08 0.00 87 1011.2
20260509070248 15 116 1.6 0.0 0.00 0.08 0.00 87 1011.2
20260509065748 15 116 1.6 0.0 0.00 0.08 0.00 87 1011.1
20260509065249 15 116 1.6 0.0 0.00 0.08 0.00 87 1011.1
20260509064249 15 116 1.6 0.0 0.00 0.08 0.00 87 1010.7
20260509063748 15 116 1.6 4.8 0.00 0.08 0.00 87 1010.8
20260509063249 15 116 1.6 6.4 0.00 0.08 0.00 87 1011.0
20260509062748 15 116 1.6 6.4 0.00 0.08 0.00 87 1011.1
20260509061748 16 120 1.6 4.8 0.00 0.08 0.00 87 1011.3
20260509061248 16 119 1.6 8.0 0.00 0.08 0.00 87 1011.2
20260509060750 16 119 4.8 8.0 0.00 0.08 0.00 87 1011.2
20260509060249 16 119 4.8 6.4 0.00 0.08 0.00 87 1011.2
20260509055748 16 120 3.2 6.4 0.00 0.08 0.00 87 1011.2
20260509055249 16 114 4.8 6.4 0.00 0.08 0.00 86 1011.2
20260509054749 16 109 4.8 6.4 0.00 0.08 0.00 86 1011.1
20260509054249 16 109 3.2 6.4 0.00 0.08 0.00 87 1011.1
20260509053748 16 110 1.6 6.4 0.00 0.08 0.00 86 1011.0
20260509053248 16 108 3.2 6.4 0.00 0.08 0.00 86 1011.0
20260509052750 16 83 1.6 6.4 0.00 0.08 0.00 86 1011.1
20260509052248 16 88 3.2 6.4 0.00 0.08 0.00 86 1011.0
20260509051748 16 93 4.8 4.8 0.00 0.08 0.00 86 1010.9
20260509051248 16 115 1.6 0.0 0.00 0.08 0.00 86 1010.9
20260509050748 16 116 1.6 1.6 0.00 0.08 0.00 86 1011.0
20260509050249 16 116 1.6 4.8 0.00 0.08 0.00 86 1011.1
20260509045749 16 116 1.6 6.4 0.00 0.08 0.00 86 1011.1
20260509045248 16 117 4.8 6.4 0.00 0.08 0.00 86 1011.1
20260509044748 16 118 3.2 6.4 0.00 0.08 0.08 86 1011.0
20260509044249 17 119 1.6 8.0 0.00 0.08 0.08 86 1011.0
20260509043749 17 117 4.8 16.1 0.00 0.08 0.08 85 1011.1
20260509042748 17 82 9.7 19.3 0.00 0.08 0.08 85 1011.2
20260509042249 17 121 4.8 12.9 0.00 0.08 0.08 85 1011.2
20260509041748 17 108 9.7 12.9 0.00 0.08 0.08 85 1011.1
20260509040748 17 103 3.2 8.0 0.00 0.08 0.08 85 1011.0
20260509040248 17 103 8.0 8.0 0.00 0.08 0.08 85 1010.9
20260509035749 17 59 3.2 14.5 0.00 0.08 0.08 85 1010.9
20260509035248 17 73 1.6 14.5 0.00 0.08 0.08 85 1011.0
20260509034749 17 81 3.2 11.3 0.00 0.08 0.08 85 1010.9
20260509034249 17 72 4.8 8.0 0.00 0.08 0.08 85 1010.7
20260509033749 17 74 3.2 8.0 0.00 0.08 0.08 86 1010.6
20260509032749 17 167 1.6 0.0 0.00 0.08 0.08 86 1010.2
20260509031748 17 167 1.6 0.0 0.00 0.08 0.08 85 1010.0
20260509031250 17 167 1.6 0.0 0.00 0.08 0.08 85 1009.7
20260509030248 17 167 1.6 0.0 0.00 0.08 0.08 84 1009.4
20260509025249 17 167 1.6 1.6 0.00 0.08 0.08 84 1009.4
20260509024748 17 167 3.2 1.6 0.00 0.08 0.08 84 1009.1
20260509024248 17 166 1.6 1.6 0.00 0.08 0.08 84 1009.0
20260509023748 17 166 1.6 1.6 0.00 0.08 0.08 84 1009.0
20260509022748 17 166 1.6 8.0 0.00 0.08 0.08 84 1008.9